Regional Weather Roundup
Issued by NWS Portland, ME

Home | Current Version | Previous Version | Text Only | Print | Product List | Glossary On
Versions: 1 2 3 4 5 6 7 8 9 10 11 12 13 14 15 16 17 18 19 20 21 22 23 24 25 26 27 28 29 30 31 32 33 34 35 36 37 38 39 40 41 42 43 44 45 46 47 48 49 50
453
ASUS41 KGYX 231310
RWRGYX
WEATHER ROUNDUP FOR MAINE AND NEW HAMPSHIRE
NATIONAL WEATHER SERVICE GRAY ME
800 AM EST THU FEB 23 2017

MEZ002-005-006-010-012-015-018-020-021-024-026-027-029-231400-
MAINE

CITY           SKY/WX    TMP DP  RH WIND       PRES   REMARKS
PORTLAND       PTSUNNY   32  29  88 CALM      29.86F
SANFORD        SUNNY     33  31  92 CALM      29.86F
BAR HARBOR     FOG       31  30  96 CALM      29.88S VSB<1/4
WISCASSET      FOG       32  30  92 CALM      29.88S VSB<1/4
ROCKLAND       CLOUDY    32  32 100 CALM      29.88S VSB 1/8
FRYEBURG       MOSUNNY   29  27  92 CALM      29.85S
LEWISTONAUBURN PTSUNNY   30  27  88 N3        29.85S
AUGUSTA        FOG       31  29  92 CALM      29.85S VSB 1/4
WATERVILLE     CLOUDY    32  30  93 SW7       29.82S VSB 1/4
BANGOR         FOG       32  32 100 S8        29.84F VSB 1/2
GREENVILLE       N/A     35  31  85 VRB5      29.75S
MILLINOCKET    SUNNY     26  24  92 CALM      29.81F
HOULTON        CLOUDY    34  28  79 S7        29.78F
PRESQUE ISLE   CLOUDY    29  26  89 S6        29.77
FRENCHVILLE    CLOUDY    29  25  85 S8        29.72F
CARIBOU        CLOUDY    25  24  96 S5        29.75F
$$

NHZ002-005-008-009-011-012-014-231400-
NEW HAMPSHIRE

CITY           SKY/WX    TMP DP  RH WIND       PRES   REMARKS
PORTSMOUTH     MOSUNNY   33  31  92 W6        29.86R
ROCHESTER      CLOUDY    33  29  85 NW5       29.86R
NASHUA         SUNNY     36  32  85 NW3       29.87F
MANCHESTER     PTSUNNY   37  30  75 CALM      29.85S
CONCORD        MOSUNNY   32  29  88 CALM      29.87R FOG
LACONIA        PTSUNNY   34  32  92 MISG      29.86R
PLYMOUTH       CLOUDY    29  29  99 CALM      29.86R
BERLIN         CLOUDY    28  25  88 CALM      29.80S FOG
WHITEFIELD     CLOUDY    32  27  81 CALM      29.80S
JAFFREY        SUNNY     34  31  88 CALM      29.85S
KEENE          SUNNY     32  31  96 CALM      29.87S
LEBANON        PTSUNNY   32  30  92 NE3       29.83F
MT WASHINGTON  FOG       36  36 100 W48         N/A  VSB 0
$$

VTZ005-007-008-231400-
VERMONT

CITY           SKY/WX    TMP DP  RH WIND       PRES   REMARKS
ST JOHNSBURY     N/A     30  28  92 MISG      29.79F
MONTPELIER     CLOUDY    32  32 100 CALM      29.81F
BURLINGTON     PTSUNNY   49  39  68 S12       29.73F
$$

MAZ007-012-024-CTZ003-RIZ002-NYZ038-NYZ072-231400-
SOUTHERN NEW ENGLAND AND NY

CITY           SKY/WX    TMP DP  RH WIND       PRES   REMARKS
BOSTON         MOSUNNY   42  40  92 S6        29.87S
WORCESTER      SUNNY     45  36  70 SW9       29.85S
NANTUCKET      FOG       43  42  97 SW8       29.92R VSB 1/4
PROVIDENCE     MOSUNNY   42  39  89 S6        29.89S
HARTFORD       MOSUNNY   39  36  89 CALM      29.88R
ALBANY         MOSUNNY   46  37  71 S9        29.83S
NEW YORK CITY  PTSUNNY   45  40  82 NE5       29.91R
$$

ANZ081-ANZ082-ANZ150-NHZ014-MEZ023>029-231400-
COASTAL MARINE OBSERVATIONS

STATION/POSITION TIME  TEMP    WIND        PRES    WAVE
                       AIR SEA DIR/SP/G            HT/PER
                 (UTC) (F)     (DEG/KT/KT) (MB)    (FT/S)
MOUNT DESERT ROC 1200   40                 1012.1R
MATINICUS ROCK   1200   40     160/ 13/ 14 1011.1R
ISLE OF SHOALS   1200   38     190/  2/  2 1011.0F
JEFFREYS LEDGE   1206      43                N/A     4/10
CASHES LEDGE BUO 1150   42 43              1011.5    3/11
GEORGES BANK BUO 1150   44 43              1014.8    4/10
$$

.............KEY..............
   WCI - WIND CHILL
   TC  - TEMPERATURE IN CELSIUS
   VSB - VISIBILITY IN MILES
   HX  - HEAT INDEX
   FAIR- INDICATES FEW OR NO CLOUDS BELOW 12,000 FT, WITH NO
         SIGNIFICANT WEATHER AND/OR OBSTRUCTIONS TO VISIBILITY.






USA.gov is the U.S. government's official web portal to all federal, state and local government web resources and services.